Location: Ostrava
(49.8330°N, 18.2830°E)
Time: 09:19:00
(UTC+02:00)

Iridium 39 - Visible Passes

Search period start: 26 May 2017 00:00
Search period end: 05 June 2017 00:00
Orbit: 724 x 752 km, 86.4° (Epoch: 25 May)

Date Brightness Start Highest point End Pass type
(mag) Time Alt. Az. Time Alt. Az. Time Alt. Az.
26 May 7.2 22:45:44 10° NNW 22:50:19 37° W 22:54:56 10° SSW visible
27 May 6.0 22:00:16 10° N 22:05:19 81° W 22:10:22 10° S visible
27 May 8.5 23:42:30 10° NW 23:44:21 12° WNW 23:46:13 10° W visible
28 May 6.4 21:15:12 10° N 21:20:05 47° E 21:24:56 10° SSE visible
28 May 7.8 22:55:38 10° NNW 22:59:42 25° W 23:03:47 10° SW visible
29 May 6.6 22:09:55 10° NNW 22:14:49 53° W 22:19:44 10° SSW visible
30 May 6.0 21:24:39 10° N 21:29:42 71° E 21:34:45 10° S visible
30 May 8.4 23:05:47 10° NW 23:09:01 17° WNW 23:12:15 10° WSW visible
31 May 7.4 22:19:40 10° NNW 22:24:16 36° W 22:28:50 10° SSW visible
01 Jun 6.1 21:34:12 10° N 21:39:16 78° W 21:44:20 10° S visible
01 Jun 8.7 23:16:35 10° NW 23:18:16 12° WNW 23:19:56 10° W visible
02 Jun 8.0 22:29:36 10° NNW 22:33:38 24° W 22:37:40 10° SW visible
03 Jun 6.8 21:43:51 10° NNW 21:48:45 51° W 21:53:39 10° SSW visible
04 Jun 8.5 22:39:47 10° NW 22:42:56 17° WNW 22:46:05 10° WSW visible
